Location: P�rn�nmaa
(61.1833°N, 23.0000°E)
Time: 18:25:51
(UTC+00:00)

Cosmos 1900 - Pass Details

Date: 08 December 2019
Orbit: 692 x 730 km, 66.1° (Epoch: 17 January)

Event Time Altitude Azimuth Distance (km) Brightness Sun altitude
Rises 14:06:02 0° 299° (WNW) 3,098 8.0 -5.4°
Reaches altitude 10° 14:08:24 10° 302° (WNW) 2,173 7.1 -5.6°
Maximum altitude 14:13:20 69° 26° (NNE) 748 4.3 -6.0°
Drops below altitude 10° 14:18:13 10° 110° (ESE) 2,153 6.5 -6.5°
Sets 14:20:33 0° 113° (ESE) 3,067 7.3 -6.7°
